MDT,Max TemperatureF,Mean TemperatureF,Min TemperatureF,Max Dew PointF,MeanDew PointF,Min DewpointF,Max Humidity, Mean Humidity, Min Humidity, Max Sea Level PressureIn, Mean Sea Level PressureIn, Min Sea Level PressureIn, Max VisibilityMiles, Mean VisibilityMiles, Min VisibilityMiles, Max Wind SpeedMPH, Mean Wind SpeedMPH, Max Gust SpeedMPH,PrecipitationIn, CloudCover, Events, WindDirDegrees
2013-10-1,72,54,36,43,40,36,93,60,27,29.94,29.85,29.77,10,10,10,9,4,13,0.00,0,,25
2013-10-2,58,49,40,45,38,33,93,67,40,30.08,29.96,29.85,10,9,2,12,3,18,0.54,4,Rain,25
2013-10-3,46,39,32,43,36,32,100,92,83,30.16,29.97,29.82,10,5,0,18,6,24,0.84,7,Fog-Rain-Snow,318
2013-10-4,35,34,32,32,29,27,96,83,70,30.46,30.31,30.09,10,7,1,32,17,41,0.02,8,Snow,325
2013-10-5,44,33,22,33,27,19,96,79,62,30.45,30.41,30.36,10,10,10,9,4,10,0.00,0,,161
2013-10-6,59,44,29,42,33,26,92,66,40,30.38,30.29,30.16,10,10,10,12,4,14,0.00,0,,173
2013-10-7,66,49,32,41,37,31,92,66,40,30.15,29.93,29.73,10,10,10,20,6,23,0.00,0,,166
2013-10-8,62,49,36,43,39,35,92,69,46,29.89,29.75,29.67,10,10,10,14,4,16,0.00,0,,329
2013-10-9,53,46,38,38,37,35,92,71,50,30.05,29.98,29.92,10,10,9,9,2,10,0.00,2,,187
2013-10-10,51,44,36,45,41,35,100,86,71,29.90,29.74,29.66,10,10,8,13,3,15,0.05,5,Rain,264
2013-10-11,52,42,31,43,33,25,89,62,35,30.09,29.90,29.66,10,10,7,26,11,33,0.05,5,Rain,316
2013-10-12,55,42,28,34,30,27,92,65,38,30.18,30.11,30.04,10,10,10,10,2,13,0.00,0,,164
2013-10-13,48,39,30,37,34,29,100,81,61,30.15,30.11,30.06,10,10,9,15,5,18,0.06,5,Rain,348
2013-10-14,40,37,34,35,33,31,92,84,76,30.41,30.21,30.09,10,9,6,31,15,41,0.07,8,Rain-Snow,318
2013-10-15,44,37,30,32,29,25,89,69,49,30.43,30.35,30.25,10,10,10,14,4,17,0.00,4,,1
2013-10-16,52,37,22,34,27,22,92,64,36,30.24,30.16,30.05,10,10,10,10,2,14,0.00,1,,293
2013-10-17,42,38,34,34,32,28,92,76,60,30.22,30.17,30.14,10,10,9,20,6,25,0.02,8,Rain,293
2013-10-18,50,40,29,34,27,21,92,63,34,30.32,30.21,30.12,10,10,8,22,7,28,0.00,2,Rain,252
2013-10-19,58,42,26,34,29,24,92,62,32,30.12,30.03,29.94,10,10,10,10,3,13,0.00,0,,172
2013-10-20,54,44,33,38,34,29,92,67,41,30.13,30.07,29.98,10,10,10,22,8,30,T,6,Rain,305
2013-10-21,58,47,35,38,33,28,92,64,35,30.19,30.14,30.09,10,10,10,8,3,9,0.00,5,,156
2013-10-22,65,48,31,38,34,30,96,64,31,30.25,30.15,30.06,10,10,10,9,3,13,0.00,0,,149
2013-10-23,62,47,31,38,35,30,96,66,36,30.23,30.18,30.12,10,10,10,9,4,10,0.00,0,,168
2013-10-24,59,45,31,38,35,30,100,70,40,30.32,30.24,30.17,10,10,10,9,2,10,0.00,0,,188
2013-10-25,64,47,29,39,35,29,100,67,34,30.29,30.21,30.14,10,10,10,9,4,9,0.00,0,,186
2013-10-26,67,48,29,40,34,28,100,66,32,30.35,30.23,30.12,10,10,10,9,3,,0.00,0,,195
2013-10-27,,,,,,,,,,,,,,,,,,,,,,
2013-10-28,43,35,27,30,27,24,92,89,85,30.18,30.09,30.01,10,7,1,13,8,15,0.11,8,Snow,337
2013-10-29,34,30,26,31,27,23,92,85,78,30.15,30.01,29.88,10,9,1,8,2,10,0.02,8,Snow,32
2013-10-30,47,38,28,36,31,28,100,83,65,29.96,29.88,29.81,10,4,0,7,3,9,T,5,Fog-Snow,136
2013-10-31,54,39,24,36,30,24,100,69,38,29.98,29.90,29.80,10,10,10,16,4,23,0.00,3,,156